Location: Casilda
(33.0440°S, 61.1680°W)
Time: 19:40:48
(UTC-03:00)

ISS - Pass Details

Date: 02 December 2022
Orbit: 414 x 420 km, 51.6° (Epoch: 02 December)

Event Time Altitude Azimuth Distance (km) Brightness Sun altitude
Exits shadow 02:53:43 12° 198° (SSW) 1,396 -0.7 -28.0°
Drops below altitude 10° 02:54:41 10° 181° (S) 1,527 -0.2 -27.9°
Sets 02:57:49 0° 151° (SSE) 2,400 1.4 -27.6°
